Location: ????????
(55.3975°N, 38.2844°E)
Time: 13:21:38
(UTC+00:00)

BlueWalker 3 - Pass Details

Date: 19 August 2024
Orbit: 475 x 487 km, 53.2° (Epoch: 14 September)

Event Time Altitude Azimuth Distance (km) Brightness Sun altitude
Exits shadow 01:25:42 - 280° (W) 2,526 5.1 -6.1°
Reaches altitude 10° 01:27:57 10° 269° (W) 1,685 4.1 -5.9°
Maximum altitude 01:31:16 29° 209° (SSW) 933 2.8 -5.5°
Drops below altitude 10° 01:34:34 10° 148° (SSE) 1,681 4.6 -5.1°
Sets 01:36:55 0° 137° (SE) 2,559 5.7 -4.8°
